TimeCDT,TemperatureF,Dew PointF,Humidity,Sea Level PressureIn,VisibilityMPH,Wind Direction,Wind SpeedMPH,Gust SpeedMPH,PrecipitationIn,Events,Conditions,WindDirDegrees,DateUTC
12:52 AM,21.9,14.0,72,30.13,10.0,East,6.9,-,N/A,,Clear,90,2013-04-20 05:52:00
1:52 AM,18.0,12.9,81,30.14,10.0,SE,8.1,-,N/A,,Clear,140,2013-04-20 06:52:00
2:52 AM,18.0,12.0,78,30.14,10.0,SE,6.9,-,N/A,,Clear,130,2013-04-20 07:52:00
3:52 AM,19.0,12.0,74,30.14,10.0,SE,4.6,-,N/A,,Scattered Clouds,130,2013-04-20 08:52:00
4:52 AM,19.9,12.9,74,30.14,10.0,East,8.1,-,N/A,,Overcast,100,2013-04-20 09:52:00
5:52 AM,21.9,14.0,72,30.14,10.0,SE,12.7,-,N/A,,Mostly Cloudy,130,2013-04-20 10:52:00
6:52 AM,23.0,15.1,72,30.14,10.0,SE,11.5,-,N/A,,Overcast,140,2013-04-20 11:52:00
7:52 AM,24.1,16.0,71,30.15,10.0,SE,11.5,-,N/A,,Clear,140,2013-04-20 12:52:00
8:52 AM,26.1,18.0,71,30.16,10.0,SSE,15.0,-,N/A,,Overcast,150,2013-04-20 13:52:00
9:52 AM,27.0,19.0,72,30.16,10.0,SSE,20.7,-,N/A,,Overcast,150,2013-04-20 14:52:00
10:52 AM,28.0,19.0,69,30.15,10.0,SE,18.4,-,N/A,,Overcast,140,2013-04-20 15:52:00
11:52 AM,30.0,19.0,64,30.14,10.0,SSE,23.0,-,N/A,,Overcast,150,2013-04-20 16:52:00
12:52 PM,32.0,19.9,61,30.13,10.0,SSE,20.7,27.6,N/A,,Overcast,150,2013-04-20 17:52:00
1:52 PM,32.0,21.9,66,30.12,10.0,SSE,23.0,-,N/A,,Overcast,150,2013-04-20 18:52:00
2:52 PM,33.1,27.0,78,30.11,10.0,SSE,21.9,28.8,0.00,Snow,Light Snow,160,2013-04-20 19:52:00
3:20 PM,32.0,26.6,80,30.03,6.0,SE,23.0,-,0.00,Snow,Light Snow,140,2013-04-20 20:20:00
3:52 PM,32.0,28.0,85,30.09,5.0,SSE,24.2,27.6,0.00,Snow,Light Snow,150,2013-04-20 20:52:00
4:52 PM,32.0,28.0,85,30.08,10.0,SSE,19.6,29.9,0.00,,Overcast,150,2013-04-20 21:52:00
5:52 PM,30.9,27.0,85,30.07,9.0,SSE,21.9,27.6,0.00,Snow,Light Snow,150,2013-04-20 22:52:00
6:52 PM,30.9,26.1,82,30.05,10.0,SSE,21.9,-,N/A,,Overcast,150,2013-04-20 23:52:00
7:52 PM,30.0,26.1,85,30.05,10.0,SE,23.0,29.9,N/A,,Overcast,140,2013-04-21 00:52:00
8:52 PM,30.0,26.1,85,30.06,10.0,SSE,20.7,26.5,N/A,,Overcast,150,2013-04-21 01:52:00
9:52 PM,30.9,27.0,85,30.06,10.0,SSE,16.1,-,N/A,,Overcast,150,2013-04-21 02:52:00
10:52 PM,30.9,27.0,85,30.05,10.0,SSE,20.7,25.3,N/A,,Overcast,150,2013-04-21 03:52:00
11:52 PM,30.0,26.1,85,30.03,10.0,SSE,13.8,-,N/A,,Overcast,160,2013-04-21 04:52:00